Regional Weather Roundup
Issued by NWS Kansas City/Pleasant Hill, MO

Home | Current Version | Previous Version | Text Only | Print | Product List | Glossary On
Versions: 1 2 3 4 5 6 7 8 9 10 11 12 13 14 15 16 17 18 19 20 21 22 23 24 25 26 27 28 29 30 31 32 33 34 35 36 37 38 39 40 41 42 43 44 45 46 47 48 49 50
000
ASUS43 KEAX 050310
RWREAX

WEATHER ROUNDUP FOR EASTERN KANSAS AND NORTHWEST MISSOURI
NATIONAL WEATHER SERVICE KANSAS CITY/PLEASANT HILL MO
900 PM CST WED MAR 04 2015

KSZ040-057-103>105-MOZ028-029-037-043-050400-
...KANSAS CITY METROPOLITAN AREA...

CITY           SKY/WX    TMP DP  RH WIND       PRES   REMARKS
K.C. INTL      MOCLDY    23   8  52 N9        30.38R WCI  13
K.C. DOWNTOWN  MOCLDY    28   7  41 W3        30.39R
LEES SUMMIT    CLOUDY    24   7  48 CALM      30.38R
OLATHE - IXD   MOCLDY    22  12  65 SW3       30.39R
OLATHE - OJC   MOCLDY    23   9  55 CALM      30.37R
LAWRENCE       PTCLDY    20   9  62 N6        30.41R WCI  12

$$

MOZ001>008-011>017-020>025-030>033-038>040-044>046-053-054-050400-
...NORTHERN AND CENTRAL MISSOURI...

CITY           SKY/WX    TMP DP  RH WIND       PRES   REMARKS
ST. JOSEPH     PTCLDY    21   4  47 N12       30.40S WCI   9
MOSBY          CLOUDY    27  14  59 N3        30.38R
WHITEMAN AFB   PTCLDY    23  10  58 S2        30.37R
CLINTON        CLOUDY    27  14  59 CALM      30.40R
SEDALIA        CLOUDY    24   9  52 CALM      30.38R
WARSAW         NOT AVBL
MARSHALL       CLOUDY    27  10  50 CALM      30.36F
CHILLICOTHE      N/A     27   6  41 N12G18    30.39R WCI  17
MOBERLY        MOCLDY    23   7  50 SE3       30.36R
KIRKSVILLE     NOT AVBL

$$

MOZ041-047>049-056>058-063>065-088>090-097-050400-
...EASTERN AND SOUTHERN MISSOURI...

CITY           SKY/WX    TMP DP  RH WIND       PRES   REMARKS
ST. LOUIS INTL CLOUDY    23   4  44 N9        30.36S WCI  13
SPIRIT OF STL  CLOUDY    23   3  42 N6        30.39R WCI  16
COLUMBIA       CLOUDY    23   7  50 NE3       30.35R
JEFFERSON CITY CLOUDY    24   3  40 E3        30.38R
MEXICO         MOCLDY    23  12  63 CALM      30.37R
ROLLA          CLOUDY    21   6  52 N8        30.30R WCI  11
OSAGE BEACH    CLOUDY    23   3  42 N7        30.37R WCI  15
SPRINGFIELD    CLOUDY    23   8  52 N10       30.31R WCI  12
BRANSON        LGT SNOW  19  16  86 N13       30.32R WCI   7
NEVADA         CLOUDY    25  10  54 NE6       30.38S WCI  18
JOPLIN         CLOUDY    24   7  48 NE10      30.37R WCI  14
WEST PLAINS    CLOUDY    20  10  65 N14       30.27R WCI   7

$$

IAZ060-094-KSZ022-034>040-054-083-096-NEZ052-066-093-050400-
...KANSAS...SOUTHEAST NEBRASKA AND IOWA...

CITY           SKY/WX    TMP DP  RH WIND       PRES   REMARKS
TOPEKA         PTCLDY    25   7  46 NW3       30.41R
MANHATTAN      CLEAR     21   9  59 CALM      30.40R
EMPORIA        PTCLDY    24   9  52 N5        30.38R WCI  18
CHANUTE        CLOUDY    26   8  46 NE6       30.38R WCI  19
WICHITA        MOCLDY    27   9  46 NE5       30.38R WCI  22
OMAHA          CLEAR     15   0  51 N12       30.44R WCI   2
LINCOLN        CLEAR     16  -1  47 N14       30.42R WCI   2
FALLS CITY     PTCLDY    20   0  41 N8        30.39F WCI  10
LAMONI         PTCLDY    17   1  49 N12       30.37R WCI   4
DES MOINES     PTCLDY    16   3  56 N12       30.41R WCI   3

$$




USA.gov is the U.S. government's official web portal to all federal, state and local government web resources and services.